Theta_e
291 286 284 285 284 286 285 286 287 285 285 285 284 285 282 282 285 286 286 289 290 289 287 289 288 286 288 290 290 292 304 318 319 316 319 322 323 324 325 326 325 322 320 323 323 324 324 324 324 324 326 327 328 329 329 330 331 334 334 333 331 333 332 331 330 329 329 328 329 330 330 329 332 332 332 330 330 329 329 331 331 331 331 330 330 329
293 286 286 287 287 287 289 287 287 287 288 287 286 284 284 282 284 287 287 288 290 289 284 286 288 288 290 292 292 291 302 313 317 316 316 319 322 323 324 325 322 320 321 322 321 323 324 323 323 324 326 327 326 328 328 329 332 333 334 333 332 332 332 331 331 330 330 330 330 330 330 331 331 332 330 329 328 327 328 329 330 331 330 329 329 329
285 285 287 288 289 289 289 288 288 288 287 286 285 284 282 284 284 287 288 289 291 289 286 286 287 289 292 293 292 291 300 309 316 318 317 318 319 321 323 325 319 319 319 320 321 323 323 323 323 323 325 326 328 329 330 331 332 332 332 333 332 332 332 331 332 331 330 331 332 332 331 331 329 330 330 326 326 329 327 327 329 330 329 329 328 329
284 285 288 289 289 289 288 287 287 286 287 285 284 283 283 284 284 281 284 288 290 290 287 288 288 289 292 292 291 293 295 300 309 316 317 318 318 320 323 324 319 318 318 318 319 321 322 322 322 321 322 324 328 329 330 331 331 332 332 332 332 332 332 332 332 332 332 332 331 330 331 330 329 326 327 324 324 325 326 325 326 327 328 328 328 328
287 288 289 288 288 289 288 287 286 285 283 283 285 283 283 284 283 284 285 287 288 289 290 288 286 285 285 287 287 289 291 293 299 308 311 314 317 321 323 323 323 320 318 318 320 321 320 319 319 320 321 322 326 328 330 331 331 332 332 332 333 332 332 332 332 331 330 329 326 326 326 325 322 323 321 322 320 321 325 324 324 325 326 328 328 328
287 291 288 289 287 288 287 286 285 286 282 280 284 287 286 286 285 285 286 286 282 283 286 288 280 277 282 284 287 288 288 290 293 303 309 315 318 320 320 321 322 321 320 320 320 320 320 319 318 320 320 323 325 327 330 331 332 332 332 332 332 332 331 331 331 329 329 328 325 323 322 320 317 318 320 321 321 319 323 324 320 324 325 327 327 326
289 291 291 288 287 286 286 285 285 287 282 281 284 287 288 287 286 286 285 285 280 280 288 287 280 276 283 285 286 288 288 289 295 302 312 316 317 318 319 321 320 319 319 320 319 319 318 318 319 320 320 323 325 326 329 330 331 332 332 332 332 331 330 331 329 329 328 325 323 323 323 322 321 321 317 317 319 322 319 320 322 323 323 325 326 325
289 288 289 289 287 286 285 284 285 287 282 281 283 286 287 286 285 285 285 284 281 285 287 285 283 280 279 283 286 288 294 295 297 303 313 316 317 317 319 320 319 319 318 318 318 318 319 319 320 320 321 323 325 327 328 329 331 330 330 331 330 330 330 330 328 327 327 324 321 320 320 321 320 321 319 318 319 318 320 319 319 322 321 323 323 324
289 287 287 286 286 284 285 286 286 288 285 284 286 287 286 287 286 285 285 283 282 283 281 279 286 282 277 279 287 290 293 293 296 304 312 315 316 317 318 318 319 319 318 318 318 318 319 319 320 320 320 323 326 327 328 330 330 330 330 330 330 329 329 328 328 326 324 324 321 320 320 319 318 319 319 320 321 319 318 317 317 320 320 320 321 322
289 290 289 289 286 284 286 286 289 289 285 288 288 289 288 288 288 286 283 284 283 281 277 281 284 281 277 278 288 290 289 290 293 304 312 315 316 317 317 318 318 319 319 319 318 319 319 319 319 320 320 322 324 327 329 330 330 329 329 329 329 328 328 327 326 324 323 322 321 319 319 319 318 319 318 319 317 316 316 316 315 317 318 318 318 318
291 298 294 288 286 289 288 288 289 290 291 288 289 287 285 282 283 284 282 281 280 275 280 283 283 282 278 277 286 289 291 292 295 306 312 316 317 318 318 317 318 318 319 319 318 318 318 318 318 318 318 319 323 326 329 329 329 328 328 328 327 327 326 325 323 322 321 320 319 319 319 319 318 317 318 316 314 314 315 316 314 316 315 316 316 317
290 291 290 290 293 290 289 288 289 291 291 291 288 285 283 284 281 281 276 278 274 272 278 280 284 282 278 277 283 291 298 298 298 302 309 313 315 316 317 318 318 319 319 319 318 317 318 315 316 317 318 321 324 326 328 328 329 328 328 327 326 325 324 322 321 321 320 320 319 319 319 318 318 318 318 316 315 315 315 315 314 313 315 315 315 315
287 288 287 289 299 293 288 287 284 286 288 287 284 284 280 275 275 272 277 275 273 276 279 281 282 282 280 280 291 299 302 303 301 302 309 313 315 316 318 318 319 319 319 318 318 317 316 314 315 318 319 321 323 324 327 328 328 328 327 326 325 323 322 321 321 321 320 319 318 319 319 318 318 319 318 317 316 314 315 314 314 315 315 314 316 315
284 285 287 288 290 294 290 284 281 285 284 284 283 280 278 275 271 266 268 270 274 278 280 281 283 281 281 286 292 301 306 307 307 305 310 315 316 317 318 318 318 319 319 318 318 316 314 315 317 318 320 321 323 325 327 327 327 327 325 325 323 322 321 320 320 320 319 319 319 319 318 317 319 318 319 318 317 314 315 315 315 316 316 316 317 315
275 278 283 286 285 289 290 290 289 285 283 286 285 286 282 277 273 268 273 271 275 278 279 281 282 278 283 284 301 305 310 311 308 306 312 316 318 318 318 318 319 318 319 319 317 315 315 316 317 318 320 322 324 325 326 327 327 326 325 322 322 320 320 319 319 319 319 319 319 318 317 318 319 319 319 318 317 315 315 314 315 315 315 316 315 316
281 279 284 288 290 291 289 291 290 285 285 284 283 285 282 280 277 279 273 277 277 278 277 279 279 283 286 298 303 307 312 312 313 312 314 315 317 318 317 317 318 318 318 318 316 316 316 316 318 320 321 322 324 325 326 326 326 325 324 323 322 320 319 318 318 317 318 319 319 317 316 317 318 318 318 317 316 315 316 315 315 315 315 315 314 314
280 280 285 287 288 289 290 291 291 289 281 284 284 282 285 286 284 275 277 279 275 274 274 276 284 289 292 296 299 305 309 310 311 313 313 314 315 316 314 314 315 315 314 314 313 314 316 318 319 321 322 323 324 324 324 324 325 324 323 322 321 320 318 317 317 317 317 318 317 316 316 316 316 316 317 317 316 316 315 316 315 315 314 314 315 316
279 279 285 287 290 291 290 290 292 290 289 284 282 285 288 289 287 281 275 270 269 271 270 279 281 281 282 283 298 302 305 307 308 311 312 312 312 310 310 310 312 313 315 316 316 317 318 319 320 321 322 323 323 323 323 323 324 324 323 322 321 319 317 315 316 316 317 317 316 315 315 315 316 316 316 316 316 315 315 314 315 314 315 315 315 316
286 281 283 285 287 289 291 291 287 290 291 288 284 288 287 278 280 280 277 272 271 269 268 279 280 280 281 282 289 300 302 304 306 307 308 307 308 309 310 311 312 313 314 314 315 316 317 317 318 319 320 321 322 322 323 323 323 322 322 322 322 320 318 316 316 317 317 318 318 317 316 315 315 315 315 315 316 316 315 314 314 314 314 314 315 316
287 281 281 285 287 289 288 286 282 282 289 289 290 289 289 283 279 279 276 278 277 269 270 275 279 277 285 283 290 296 301 304 305 305 306 307 308 308 309 309 310 311 313 314 314 315 317 317 319 320 320 320 321 321 322 322 323 322 321 320 319 318 318 317 316 317 316 317 317 316 316 316 316 316 315 315 315 315 314 314 314 314 314 314 314 312
283 284 275 281 286 287 284 286 284 281 283 284 286 281 286 284 285 284 283 281 280 271 270 271 272 277 282 288 292 298 302 305 306 306 305 306 308 309 309 310 310 311 312 312 313 314 315 316 318 319 320 320 320 320 321 322 321 321 320 319 319 318 318 318 319 320 319 318 317 317 316 315 315 314 315 314 314 314 314 313 314 314 314 313 312 311
282 283 281 281 282 278 283 287 291 291 285 282 281 282 282 281 283 280 276 281 278 278 272 274 272 278 286 301 301 301 303 304 307 306 305 307 308 309 310 310 310 310 311 312 313 314 315 316 317 317 318 320 319 319 319 320 320 319 319 320 319 319 319 318 319 319 318 318 317 317 316 315 315 315 315 314 313 313 313 313 313 313 312 312 310 310
288 282 282 280 283 286 288 291 291 294 293 289 289 287 286 280 280 277 274 277 280 282 280 278 274 277 291 303 303 302 303 304 306 306 305 306 307 308 309 310 311 311 311 311 312 313 314 315 316 317 318 319 319 319 319 319 318 318 318 319 319 319 319 319 318 318 318 317 317 317 316 316 315 315 315 314 313 313 313 313 313 313 312 311 309 309
304 282 285 281 281 283 286 288 290 291 293 288 289 288 286 285 282 280 278 278 279 280 279 277 276 277 295 303 302 303 303 304 305 306 304 304 306 308 309 309 310 310 311 312 313 314 314 315 315 316 316 317 318 318 318 318 318 317 316 317 318 318 318 318 318 318 318 317 317 316 316 316 315 315 315 314 313 313 313 313 313 313 312 310 309 309
286 286 283 278 275 277 279 283 284 287 288 284 285 286 288 288 286 282 282 280 280 281 280 278 273 278 297 302 303 302 303 302 302 302 303 301 302 302 303 303 305 306 306 306 307 309 311 312 313 313 315 315 316 316 316 316 317 317 317 316 317 318 318 318 318 317 317 316 316 315 315 314 315 315 314 314 314 313 313 313 313 313 311 310 309 308
288 285 284 278 273 270 270 271 273 277 282 283 287 287 288 287 285 284 281 280 278 279 281 277 272 282 298 301 301 301 301 299 300 300 301 302 301 300 299 299 299 300 301 302 302 303 304 306 308 310 312 314 315 315 315 315 316 316 316 317 317 318 317 316 317 316 315 315 315 315 315 315 314 315 315 314 314 313 313 312 312 312 311 310 309 308
284 285 284 281 278 277 277 276 281 285 283 283 285 285 287 285 286 283 279 276 276 276 277 278 282 289 295 297 298 300 299 298 298 299 298 297 297 297 298 297 297 298 299 299 299 300 301 301 302 305 307 310 313 315 315 316 316 316 315 315 316 317 316 316 316 316 316 316 316 315 315 315 314 315 314 314 314 315 315 313 312 312 311 311 310 310
284 283 285 285 286 284 284 283 286 287 283 285 284 285 287 286 285 284 280 281 283 280 276 279 286 291 293 297 299 298 297 297 298 297 296 295 295 296 296 297 297 298 297 297 297 298 298 298 299 302 305 308 311 314 315 315 315 315 314 314 315 315 314 315 315 315 315 315 314 314 314 314 314 315 315 315 315 315 316 315 315 313 311 309 309 309
285 282 286 285 285 287 287 286 287 286 285 284 284 284 285 287 285 283 282 282 281 278 277 283 291 292 295 298 299 298 298 298 297 296 296 297 297 297 297 296 295 296 296 296 295 295 296 298 298 299 302 304 306 307 309 310 312 312 313 315 315 315 315 316 316 315 314 314 313 313 314 315 315 315 315 315 315 315 315 314 314 314 314 313 312 312
288 284 288 287 285 287 287 287 286 285 283 283 283 283 285 288 290 288 287 287 285 282 283 292 294 292 297 299 299 298 298 296 295 296 296 295 294 294 294 293 293 294 294 294 294 295 295 296 297 298 299 299 300 301 302 302 302 304 305 306 309 312 315 316 315 315 315 314 313 313 313 313 313 314 314 314 314 314 314 314 314 313 313 313 313 313
289 284 289 285 282 284 286 287 287 285 282 282 282 284 284 284 289 291 292 292 294 293 294 294 292 289 294 299 296 295 295 295 294 293 292 293 294 293 293 292 292 293 293 294 294 294 295 296 297 297 297 297 298 299 299 299 299 300 299 300 300 302 303 305 304 305 306 308 310 311 312 312 312 312 313 313 313 313 313 313 313 312 312 312 312 312
288 285 288 284 282 281 286 285 287 286 284 282 282 283 283 282 283 286 287 290 290 290 292 292 289 287 293 296 295 295 294 292 291 291 291 292 293 292 291 292 292 292 293 293 295 295 295 295 295 295 295 296 296 297 298 298 298 298 298 298 298 299 300 301 300 300 300 301 302 302 302 303 302 303 305 306 307 308 309 309 310 310 310 310 310 310
285 285 283 283 282 279 284 286 286 286 286 282 279 283 285 283 284 288 290 291 290 292 290 288 289 292 294 295 292 290 290 289 289 290 290 290 291 292 292 292 293 293 294 294 294 295 295 295 295 296 296 296 297 296 297 298 297 297 297 297 299 298 298 298 298 298 298 298 299 299 299 300 299 298 299 299 300 300 300 300 301 302 303 304 306 306
287 286 284 285 282 280 284 283 285 284 279 279 285 289 288 285 287 286 286 288 291 291 289 292 292 293 294 292 290 288 287 287 288 290 292 291 290 290 291 291 292 292 294 294 295 295 295 296 296 297 297 297 297 297 297 298 297 297 298 298 298 297 297 297 297 297 297 297 297 298 298 298 298 297 297 298 297 298 297 297 297 299 300 300 301 300
286 284 283 283 281 280 283 284 282 277 278 286 290 291 291 291 290 289 289 290 290 292 292 290 290 289 289 289 288 287 288 288 289 289 290 292 291 289 289 291 291 292 292 292 293 295 295 295 296 296 297 297 297 297 297 297 297 297 297 297 297 297 296 296 296 296 296 296 297 297 297 297 296 296 296 296 296 296 296 296 296 296 297 297 297 298
285 285 281 281 280 281 280 278 274 274 284 288 289 289 291 292 290 289 289 289 290 290 290 287 288 288 288 288 288 289 288 289 289 289 289 291 292 290 288 288 291 292 292 293 293 293 294 295 295 295 296 298 297 297 297 297 297 297 296 297 296 296 296 296 296 296 296 296 296 296 296 296 295 295 295 296 295 295 295 294 294 294 296 296 295 296
289 284 282 281 282 276 278 279 279 284 284 285 285 286 286 284 285 284 282 286 290 291 289 287 287 287 287 288 288 289 290 289 286 286 289 289 290 291 291 290 291 293 294 294 295 294 295 296 296 296 297 297 297 297 297 297 297 296 296 296 296 296 296 295 295 295 295 295 296 296 296 296 295 295 295 295 295 294 294 294 294 294 295 294 294 294
287 285 282 281 279 280 280 278 277 277 276 280 285 288 292 291 291 290 286 284 290 291 291 288 287 286 287 287 287 290 291 288 284 284 289 291 292 290 292 292 293 294 295 295 295 294 294 294 295 296 296 296 296 296 297 297 297 296 296 296 296 295 295 295 294 295 295 295 296 296 295 295 295 294 294 294 293 293 293 294 294 294 294 293 293 293
287 286 283 281 279 277 275 274 273 272 276 283 285 287 289 291 291 290 285 282 287 291 292 290 288 289 288 288 289 291 289 284 283 284 288 290 292 293 293 293 294 295 295 294 294 294 294 294 294 294 294 294 294 295 296 296 296 295 295 295 295 295 294 295 295 295 295 295 296 296 295 295 295 294 294 293 293 293 293 293 293 294 294 293 293 293
284 282 281 280 276 275 275 276 276 280 279 284 286 288 289 290 290 286 278 278 286 291 292 291 288 290 291 291 291 290 288 284 284 285 287 289 292 294 294 293 294 294 295 296 295 295 295 296 295 293 293 293 293 294 295 295 295 295 294 294 294 293 293 294 295 296 295 295 295 295 295 295 295 294 293 293 293 293 292 293 293 292 292 293 293 292
276 277 280 276 274 277 278 277 278 278 283 286 286 288 288 289 288 279 276 281 289 292 293 292 291 291 290 288 289 286 288 290 289 288 289 291 292 293 294 294 294 295 295 295 294 295 293 294 294 294 293 294 294 294 294 294 293 293 293 293 292 292 293 294 294 294 294 294 294 294 293 293 294 294 294 294 294 294 293 293 292 292 292 292 292 292
277 274 276 276 276 274 274 275 275 277 283 287 288 288 288 286 279 279 285 289 291 291 293 293 291 291 290 290 289 289 290 291 291 291 291 291 292 292 293 294 295 295 296 295 295 294 293 292 293 293 293 294 294 294 294 294 293 292 292 291 291 292 293 293 293 293 293 293 293 293 293 293 293 293 293 293 293 292 292 293 293 293 292 292 292 291
277 273 274 274 275 273 272 273 273 274 282 289 287 286 288 281 281 286 287 288 292 293 293 293 293 291 291 288 290 290 290 290 290 291 291 290 289 289 290 291 292 293 293 293 293 293 293 291 292 292 292 293 294 294 294 294 292 292 292 291 291 292 291 291 291 292 292 292 292 293 292 292 292 292 293 292 292 291 290 290 291 291 291 290 290 290
281 274 273 272 279 274 275 275 275 281 285 289 286 280 284 286 288 288 287 286 289 292 292 291 292 292 291 290 289 289 290 289 289 289 288 289 289 288 289 289 289 290 291 292 293 293 293 292 292 291 292 293 293 293 293 293 292 292 291 290 292 292 292 291 290 291 291 291 290 290 291 291 291 290 290 291 291 290 289 289 290 290 290 289 289 289
283 279 276 275 280 274 276 281 286 287 287 288 288 288 288 290 290 290 289 288 288 288 292 291 291 292 291 290 289 289 288 289 289 289 288 287 287 287 288 288 289 289 290 290 291 292 292 292 291 291 291 292 292 293 293 293 292 291 290 290 291 290 290 290 290 289 289 289 289 289 289 289 289 289 289 289 290 290 290 289 289 289 288 288 288 288
285 282 282 281 280 283 285 286 288 287 288 288 290 290 289 290 291 291 290 288 289 290 291 290 291 291 291 291 289 288 288 289 289 288 288 288 289 288 288 287 288 289 290 291 290 291 291 291 291 291 290 290 291 292 292 292 291 290 288 289 289 288 289 289 289 289 288 288 288 288 288 289 288 288 288 288 288 289 289 289 289 289 288 288 287 287
281 280 279 278 281 277 276 282 284 284 286 287 289 290 291 291 290 291 290 290 290 290 290 291 291 291 292 292 290 289 289 290 289 288 288 288 288 287 287 287 286 287 288 289 290 291 290 290 289 289 289 288 289 291 291 291 291 290 289 288 287 288 288 288 288 288 287 287 287 287 287 288 288 288 288 287 287 288 288 288 287 287 288 288 287 287
280 282 279 278 277 272 277 281 282 283 284 285 287 289 289 290 292 292 292 292 292 292 291 291 291 290 290 290 290 289 289 289 289 288 288 287 287 287 287 287 287 287 285 287 289 290 290 289 289 288 288 288 287 289 290 289 288 287 287 287 287 287 288 288 287 286 286 286 286 287 287 287 287 287 287 287 287 287 287 288 288 287 288 288 288 287
280 282 275 278 277 280 280 282 281 283 284 285 286 287 288 290 291 292 293 293 292 291 291 291 292 291 290 290 290 289 288 288 289 288 288 287 287 287 286 287 286 286 286 287 286 287 288 288 288 288 289 288 287 287 288 287 287 286 286 287 286 286 287 287 286 285 285 285 285 287 287 287 287 287 287 287 287 287 287 287 288 287 288 288 287 287
279 279 279 278 275 271 274 279 279 276 276 283 284 284 286 288 290 291 292 292 292 292 291 290 290 291 292 292 291 290 288 287 287 287 286 286 286 285 285 285 284 285 285 285 287 287 288 288 287 287 288 286 286 286 286 286 287 287 287 286 286 286 287 286 285 284 284 285 285 286 286 287 286 286 286 286 286 287 288 286 289 288 287 288 289 289
280 281 277 272 271 275 278 281 280 279 280 281 283 285 284 285 287 289 289 289 290 290 290 289 287 287 287 287 289 288 286 286 285 286 286 286 285 285 284 284 285 284 285 285 286 286 286 286 288 287 287 286 285 286 287 286 286 286 286 286 285 286 285 285 286 285 284 285 285 286 286 286 286 286 285 285 286 286 286 287 288 288 288 289 289 289
Wind_Speed
4 4 4 8 3 4 3 6 7 6 4 3 2 1 4 5 9 1 3 4 1 2 6 8 6 4 8 9 5 6 7 8 9 6 8 9 10 10 7 10 7 9 10 9 11 11 11 12 13 13 12 7 11 20 25 20 20 19 16 14 12 10 9 8 7 6 7 7 6 5 6 5 5 5 4 3 3 4 4 5 5 5 5 5 5 5
3 5 8 6 6 7 7 6 3 3 0 2 1 2 7 3 11 0 3 3 4 4 4 1 2 6 9 9 7 4 6 12 13 12 11 12 12 11 10 11 9 8 6 10 8 11 11 10 11 7 10 8 7 4 4 4 4 10 12 13 12 10 10 9 8 7 7 6 5 5 5 5 6 5 4 3 3 4 4 5 4 4 4 5 5 5
2 7 4 6 8 4 3 4 3 4 2 1 2 2 4 8 5 5 4 1 1 4 8 3 4 10 13 11 5 6 10 11 15 16 17 16 14 11 10 11 10 11 10 8 11 12 11 12 9 6 7 4 2 0 3 2 4 8 10 10 10 10 10 9 9 8 7 6 6 6 5 6 4 3 3 3 3 3 4 3 4 4 4 5 4 5
3 6 8 5 4 4 0 3 4 2 2 2 1 0 8 1 3 6 4 4 2 0 4 5 7 10 10 7 6 8 10 9 13 15 16 14 15 15 15 16 14 12 11 13 12 12 11 9 7 4 5 4 2 4 5 5 6 6 7 9 9 9 9 9 9 8 7 7 6 5 6 5 4 4 4 3 3 4 4 3 3 3 5 5 5 5
8 3 1 5 5 6 5 2 3 2 4 2 4 4 6 1 3 6 5 3 5 5 4 3 4 7 4 5 6 5 5 8 9 6 1 2 4 6 7 9 13 15 14 13 11 12 9 6 6 7 6 3 6 6 7 6 6 5 6 8 8 8 9 8 8 8 8 8 7 6 6 6 5 5 4 4 3 3 3 4 3 3 3 4 4 4
8 8 4 6 1 2 4 2 4 5 4 3 6 10 8 5 7 7 3 3 7 6 2 2 3 4 4 3 7 7 6 5 4 4 5 7 11 12 13 14 12 10 10 13 12 12 10 8 6 8 6 7 8 8 6 5 6 6 6 7 6 6 7 8 9 9 8 8 8 8 7 7 4 5 5 6 6 3 5 5 2 3 2 3 3 3
6 1 7 6 5 3 3 4 4 6 5 1 8 11 12 10 8 7 3 2 2 1 2 2 3 6 6 4 5 6 5 8 5 4 5 10 12 12 13 13 13 13 11 9 8 10 10 9 10 11 9 11 11 7 7 6 6 8 7 7 6 7 6 7 8 9 8 8 8 9 9 7 7 7 3 1 2 5 3 5 5 4 2 2 4 3
2 3 5 3 4 4 1 5 4 9 6 4 3 7 7 6 5 6 2 5 6 1 5 2 2 3 7 8 3 7 1 4 2 2 8 10 12 13 14 13 13 13 13 13 13 12 11 13 17 18 18 12 7 6 7 7 7 9 9 8 7 6 6 6 7 8 7 8 7 7 6 6 6 6 5 4 4 3 4 5 4 5 3 3 3 4
5 4 5 4 2 3 7 5 4 9 7 6 2 7 7 9 9 4 5 5 3 1 8 5 0 0 3 5 5 3 1 5 3 1 7 11 12 11 11 12 13 13 14 14 13 12 14 18 15 9 4 3 5 5 6 7 8 9 9 9 8 7 7 6 7 7 6 7 7 7 7 6 3 4 5 5 4 5 4 6 3 4 4 3 2 2
2 6 9 9 7 6 7 4 9 11 4 5 5 2 2 2 2 4 4 3 1 1 6 4 1 1 7 6 6 3 2 4 2 4 5 10 12 9 8 10 10 11 12 11 12 14 15 13 9 7 4 6 4 4 5 7 9 9 9 9 9 8 7 7 7 6 7 6 6 7 7 8 6 6 5 5 6 5 4 5 3 3 4 4 2 2
2 2 6 6 6 8 5 5 9 11 12 3 6 4 2 5 2 3 4 2 3 1 9 6 5 3 4 3 3 1 1 2 6 4 5 9 10 9 7 10 11 11 13 11 11 11 13 3 1 2 3 5 6 4 5 6 8 8 8 8 9 7 6 6 6 6 7 6 6 7 7 8 8 7 8 7 6 6 5 6 4 4 3 2 4 3
1 1 0 3 6 2 3 1 4 8 2 1 0 1 1 1 4 2 3 4 2 6 8 3 8 5 5 4 6 6 6 5 6 8 9 11 13 11 11 10 11 11 12 11 11 11 8 3 3 4 5 6 6 5 5 5 8 8 8 8 8 7 7 6 6 6 6 6 6 6 7 8 8 9 8 9 8 7 7 6 6 3 4 2 1 2
4 6 3 5 3 10 2 3 4 1 1 4 2 2 2 2 2 1 1 1 3 6 2 1 4 2 6 6 2 7 9 7 5 8 10 11 10 9 11 13 13 12 13 12 12 10 5 2 3 4 5 6 7 6 5 6 7 8 8 8 8 7 6 6 6 6 5 5 5 7 7 7 7 8 8 8 8 6 7 6 6 5 5 4 4 2
6 2 1 5 3 4 5 5 2 0 1 6 6 5 4 1 1 1 3 1 4 7 4 2 2 2 3 5 3 8 10 9 8 8 9 10 11 11 11 11 12 13 13 12 11 7 6 4 4 4 5 6 6 7 5 6 6 7 7 6 8 6 6 6 7 7 7 7 7 6 7 7 7 7 8 7 8 6 7 7 7 7 7 7 6 5
1 2 4 3 2 1 7 9 11 6 8 9 3 10 8 8 5 3 3 4 6 7 2 3 3 3 2 2 3 6 9 7 6 6 5 6 6 7 6 10 11 12 11 11 9 9 12 11 8 7 7 7 7 7 6 5 7 7 8 9 8 7 5 7 8 7 7 7 7 6 6 8 7 7 7 7 8 8 7 6 7 6 6 6 5 6
5 5 6 4 0 1 5 4 3 4 3 2 3 5 5 5 6 3 4 3 2 1 1 1 1 1 2 2 4 3 6 2 4 3 5 5 2 3 6 9 9 10 10 8 7 6 4 6 8 8 8 8 8 8 7 8 8 8 7 9 9 9 6 4 6 6 7 6 6 6 7 6 7 6 6 6 6 6 7 7 6 6 5 5 5 3
2 2 2 6 2 3 5 2 2 6 2 3 4 5 8 3 8 5 2 2 4 4 3 0 4 3 5 3 2 6 5 4 0 2 3 3 5 5 6 8 8 5 7 8 2 4 9 8 9 8 8 7 8 6 6 7 9 9 8 8 9 7 6 6 5 6 5 5 5 5 6 7 6 8 8 8 8 7 4 4 4 6 4 4 4 4
3 5 4 1 9 3 1 4 2 2 5 5 2 7 1 3 5 4 4 2 2 3 4 1 1 4 2 2 2 3 3 4 7 3 7 7 7 7 8 10 9 12 10 10 10 8 9 10 11 9 8 8 9 7 8 6 8 8 7 8 9 8 7 5 6 6 6 7 6 5 6 5 6 7 7 7 8 6 6 3 3 4 5 4 3 4
2 3 4 2 4 7 5 1 3 2 1 7 3 4 3 1 2 3 4 0 0 1 2 1 1 2 4 4 2 0 3 4 5 8 7 7 6 7 8 8 9 10 9 10 10 10 8 9 9 9 9 9 8 10 9 7 8 7 6 7 8 8 6 6 5 6 6 6 6 6 7 7 6 5 5 5 6 6 6 6 4 5 5 4 3 5
1 1 7 2 1 4 3 4 2 2 3 2 3 4 1 3 2 3 4 3 4 2 2 4 1 3 5 4 2 3 2 4 5 6 8 6 6 5 6 7 7 7 6 6 8 11 10 8 9 9 8 8 8 9 9 9 8 8 6 7 9 10 10 11 11 9 6 4 7 7 6 4 5 6 7 6 7 7 7 6 6 6 5 5 4 4
1 1 2 4 3 2 1 3 2 2 4 0 2 1 0 2 2 4 1 1 2 4 4 3 1 6 5 2 1 2 4 6 5 6 6 6 6 7 7 7 5 1 3 4 5 6 9 9 9 8 8 8 7 6 7 7 9 9 9 10 11 11 11 13 11 9 9 6 4 6 7 7 6 7 6 6 5 7 7 6 5 5 5 4 4 5
2 0 2 2 5 2 4 3 1 0 2 4 7 5 6 5 3 2 5 1 2 3 3 3 5 6 5 2 0 3 5 7 8 9 6 6 8 8 7 8 7 3 5 4 6 7 9 9 8 7 6 7 7 6 7 8 8 9 9 10 10 11 12 13 11 8 4 5 7 7 7 6 5 6 6 7 6 6 6 6 6 6 5 5 4 5
2 3 2 1 1 1 1 4 2 1 4 1 3 2 4 2 6 3 2 3 2 0 4 3 1 2 2 0 1 4 6 8 8 8 9 7 9 10 7 3 4 4 4 5 7 7 8 7 8 9 8 7 9 9 7 6 7 7 8 8 6 7 8 9 9 6 5 5 6 7 7 7 6 6 6 6 5 5 5 6 6 6 7 5 5 2
5 1 0 2 4 5 5 4 3 3 1 3 4 3 3 2 3 5 3 4 6 2 1 1 1 2 2 4 1 5 7 8 6 7 9 6 6 7 9 2 5 7 7 7 7 7 6 7 6 7 8 8 8 8 7 6 5 4 4 6 7 8 8 8 8 7 7 6 6 6 7 7 6 7 6 7 5 6 5 6 5 4 5 5 5 5
1 3 3 1 2 4 4 5 3 3 5 3 1 3 3 1 3 2 4 1 1 5 5 7 4 2 2 2 3 3 7 8 7 6 5 9 8 10 11 9 8 8 9 8 8 8 9 8 8 8 8 7 7 7 7 6 6 4 3 4 6 8 7 7 6 6 5 4 7 6 6 5 5 7 7 7 6 5 4 4 4 3 4 5 4 4
3 1 2 4 5 5 2 2 3 2 1 3 0 5 4 1 4 3 1 1 2 1 2 2 2 2 3 5 5 4 8 9 7 6 6 6 7 9 8 9 8 8 8 9 8 9 9 7 6 7 7 8 7 8 8 7 7 6 6 6 5 7 7 7 9 10 9 7 6 6 7 6 6 7 7 7 7 6 5 5 4 4 3 2 5 3
3 1 2 3 5 7 6 2 2 1 1 2 4 4 7 3 4 5 6 4 2 2 0 4 2 4 6 5 6 6 6 7 6 6 7 7 7 7 9 7 6 6 7 9 8 7 8 10 9 8 9 8 8 9 9 9 8 7 6 7 6 6 6 5 7 8 10 9 7 8 6 6 7 7 7 7 7 7 7 6 5 5 3 2 0 2
3 4 2 5 6 1 2 4 3 0 3 1 3 6 6 6 6 3 3 1 4 6 1 2 2 5 6 6 6 7 7 7 6 5 6 6 6 7 8 8 7 9 9 8 8 10 10 9 9 9 10 9 9 10 10 10 9 9 8 8 8 8 8 7 7 6 6 6 7 7 6 5 5 7 7 6 6 7 6 7 7 6 5 3 2 2
4 3 0 2 3 3 3 3 1 3 3 3 3 4 7 8 5 4 2 1 4 2 2 1 4 6 7 7 7 7 9 7 6 7 7 6 6 8 8 9 10 10 8 10 7 7 8 11 9 10 12 11 12 13 12 11 10 9 9 9 9 9 8 8 8 7 7 8 8 7 7 7 6 5 5 6 6 6 6 7 7 6 6 4 3 3
5 2 1 2 2 5 7 5 4 5 2 3 6 6 7 7 7 6 3 1 2 2 3 5 7 5 4 5 8 7 7 9 8 7 7 9 8 8 10 9 10 8 8 8 6 9 8 8 11 12 13 13 13 12 12 11 11 10 11 10 10 10 8 8 8 8 9 10 8 7 7 8 6 7 7 7 7 6 5 5 6 7 6 4 4 5
2 0 3 1 3 3 5 4 4 5 3 4 4 9 10 9 5 7 2 2 2 7 6 9 8 3 5 3 10 8 9 8 9 10 9 8 7 8 10 10 10 9 9 8 7 8 8 8 8 12 14 14 13 12 11 11 11 12 12 11 11 11 9 12 12 12 12 10 9 9 8 8 8 7 8 6 7 6 6 6 5 6 5 5 5 7
5 1 1 2 2 2 3 6 5 2 4 5 7 13 12 10 6 6 3 4 3 4 8 9 5 1 3 7 9 8 9 9 9 8 8 7 10 10 10 10 10 11 11 11 10 8 10 10 10 12 12 13 12 12 12 11 11 14 13 11 11 9 10 13 12 13 13 11 11 12 11 10 10 10 9 10 9 8 7 7 8 7 7 7 8 6
1 5 2 2 4 1 2 3 4 3 3 2 5 7 8 4 3 5 2 5 4 5 7 7 4 4 6 6 12 8 10 10 10 8 7 10 10 10 10 10 10 11 10 9 10 9 11 13 12 14 14 13 12 10 11 10 14 14 12 14 10 9 13 14 14 14 13 12 12 11 10 11 11 10 11 10 9 8 9 10 10 10 9 8 6 7
1 4 2 0 3 1 3 4 3 3 2 2 2 3 4 4 6 4 3 6 8 3 1 3 6 8 8 5 11 10 9 8 8 9 9 6 7 9 10 11 10 9 9 8 8 7 8 11 12 11 11 13 12 12 11 12 14 12 11 12 12 14 12 13 13 13 12 12 12 11 10 9 10 11 9 8 9 9 10 10 9 7 7 7 8 9
4 4 2 1 3 1 1 1 2 2 1 1 1 5 5 4 5 4 6 7 7 5 8 10 9 8 7 8 9 12 12 11 11 11 11 10 8 7 9 8 9 9 10 7 9 8 6 8 9 10 11 11 12 11 12 12 11 12 13 12 14 13 14 13 13 13 12 12 11 10 10 8 9 9 8 8 9 10 10 9 8 9 7 8 8 9
5 6 3 3 2 2 1 1 1 1 2 2 1 4 7 1 5 3 1 8 8 6 6 11 9 9 9 11 9 9 13 12 13 12 10 9 7 6 8 7 7 8 8 5 5 4 5 7 8 9 10 8 11 12 12 12 11 13 12 12 13 12 12 12 13 12 11 12 10 10 9 10 10 10 9 9 10 11 10 10 9 9 7 7 7 7
8 4 4 2 0 3 1 3 1 0 0 3 3 6 7 4 6 3 3 3 6 2 4 10 10 9 8 7 8 9 10 13 13 9 8 7 6 7 8 8 7 8 5 4 3 1 3 5 9 8 9 10 10 11 11 11 12 12 12 12 12 12 11 11 11 11 10 10 9 8 8 8 9 9 9 9 10 10 9 9 9 8 6 8 7 8
2 3 3 4 0 3 4 3 1 1 1 1 1 3 3 3 3 3 1 3 4 4 4 9 11 12 8 6 4 5 4 15 10 6 6 6 6 6 8 7 7 8 8 6 4 5 6 6 7 7 10 12 11 9 9 11 12 12 11 10 10 13 12 11 10 9 9 9 8 8 8 7 8 9 9 9 9 8 7 6 6 7 6 7 7 7
7 8 5 4 2 2 3 4 2 2 0 1 7 7 4 3 4 1 0 2 3 1 3 7 9 7 10 11 7 4 3 7 5 3 1 4 6 5 6 8 7 6 6 6 6 8 7 7 8 8 9 12 12 9 9 11 12 12 11 8 8 11 12 10 8 7 8 7 7 7 7 7 8 8 8 8 7 7 7 6 5 4 5 5 5 5
10 6 5 6 4 3 3 3 2 1 1 4 8 9 8 5 3 2 1 2 2 2 3 4 9 10 7 3 2 4 5 10 8 6 1 3 3 4 5 7 7 6 6 5 5 5 6 6 10 11 12 12 10 8 9 10 13 13 10 9 8 11 10 8 6 5 6 6 6 7 6 7 7 7 7 7 6 6 6 3 4 6 5 5 5 5
6 4 6 4 2 5 5 2 2 2 1 3 9 12 9 2 2 1 1 2 1 2 4 4 6 5 3 3 2 4 4 6 9 8 6 3 1 4 3 4 3 3 3 4 5 6 7 8 9 9 10 9 8 8 8 10 12 12 9 8 10 10 7 5 4 5 6 6 7 7 7 6 6 6 6 6 6 5 6 5 5 5 5 5 5 5
4 2 2 3 6 3 1 4 1 1 1 5 11 10 5 0 1 0 2 2 2 4 5 5 5 6 6 6 5 8 9 13 11 7 4 2 2 2 3 4 4 4 4 4 5 6 7 7 8 9 10 8 8 8 8 10 12 10 8 8 9 5 3 4 4 5 5 7 7 7 6 6 6 6 6 6 7 8 7 6 6 6 6 6 7 8
3 3 1 2 2 1 3 4 3 3 1 9 16 4 3 2 0 2 3 4 2 5 6 5 6 5 9 10 10 13 13 11 10 7 4 3 3 2 3 4 5 3 4 5 6 6 7 8 8 8 7 6 7 7 8 11 12 9 8 9 6 3 3 4 5 5 5 5 6 5 5 5 6 5 5 5 5 6 6 5 6 6 6 7 7 7
1 3 1 1 1 2 4 3 1 1 6 9 7 4 4 0 3 4 1 3 4 4 5 5 5 4 8 14 12 11 9 8 7 6 6 5 3 3 4 4 4 4 4 4 5 6 8 8 7 7 5 5 5 6 7 11 10 9 9 8 3 4 4 5 5 5 5 5 5 5 5 5 4 4 4 4 4 4 5 5 5 5 6 6 6 6
6 3 1 3 2 2 1 2 1 0 3 4 2 1 1 3 2 4 6 5 5 5 4 8 8 7 7 11 12 10 9 5 5 6 6 3 4 4 5 4 4 4 5 5 5 5 7 9 9 7 7 5 6 6 7 8 10 9 9 3 3 4 5 5 5 5 5 5 5 5 5 6 6 6 6 6 6 7 6 6 6 6 6 6 6 6
1 2 0 4 3 2 5 3 0 3 4 5 4 3 3 5 6 7 8 9 7 6 6 9 10 10 9 9 11 8 7 5 5 6 6 5 5 4 3 4 5 4 5 6 6 6 7 7 8 9 8 6 5 6 6 6 8 10 4 2 3 4 4 5 5 6 5 5 4 5 4 5 5 5 5 4 4 3 3 3 3 4 4 4 4 3
3 1 2 4 0 3 1 4 5 4 4 5 5 5 6 6 6 6 9 9 8 9 10 9 10 10 9 9 10 9 6 5 7 6 6 5 5 3 4 4 4 4 4 6 3 5 7 7 7 7 6 5 3 5 5 7 6 6 3 3 3 3 4 4 5 5 4 4 4 4 4 4 4 4 5 4 4 4 4 4 4 4 4 4 4 4
1 1 6 2 3 4 1 1 3 2 1 2 4 5 7 8 9 9 9 9 10 10 9 9 10 10 9 9 8 9 7 5 7 5 5 4 3 3 3 4 4 5 3 3 3 5 6 7 8 6 6 5 2 3 4 5 4 4 3 3 3 3 4 4 4 4 4 4 3 3 3 4 4 4 4 4 3 5 5 4 3 4 5 4 4 4
2 3 1 1 3 1 1 0 2 3 6 4 4 4 3 4 8 8 9 10 11 12 11 10 9 9 8 7 8 9 9 5 5 6 6 3 2 3 3 3 3 3 3 5 3 4 6 6 6 6 6 4 2 3 4 4 3 2 3 2 2 3 4 3 3 4 4 4 4 5 4 5 5 4 5 6 6 5 3 3 5 4 5 4 3 4
3 4 0 4 5 1 2 2 2 3 0 1 2 2 3 2 6 8 8 8 9 9 9 10 6 5 6 6 7 8 9 6 4 5 6 4 3 2 3 4 4 4 4 3 4 4 5 4 6 6 6 4 3 3 3 3 3 2 2 2 2 3 3 2 3 3 3 3 3 3 4 4 4 4 4 4 4 6 7 2 3 4 3 6 6 7
2 4 3 2 4 1 3 5 2 2 3 1 2 2 1 2 2 7 6 6 5 5 8 9 7 4 3 2 1 8 8 7 5 4 6 4 3 2 2 3 5 4 4 2 5 4 5 4 4 5 4 4 3 4 4 4 4 3 3 2 3 4 3 3 3 3 2 1 1 1 0 0 2 2 2 2 3 4 4 8 4 4 8 8 9 9
Wind_Direction
136 150 179 214 189 185 218 185 193 190 145 128 132 162 231 249 274 232 214 251 187 316 255 255 256 259 278 273 264 218 210 221 223 207 207 205 196 194 183 179 157 147 154 151 144 147 163 179 194 182 191 230 205 191 177 184 183 170 161 155 154 152 149 144 141 143 141 138 138 134 147 146 141 138 129 121 131 142 153 146 144 153 155 159 157 162
90 164 234 204 180 170 197 190 122 103 85 197 257 265 284 210 271 321 290 230 229 166 288 283 333 279 265 275 263 212 178 216 216 209 212 208 200 194 173 160 146 156 131 152 148 165 177 194 200 195 183 197 217 286 335 194 179 155 151 155 151 151 150 151 151 146 149 152 158 154 151 133 139 141 145 145 157 158 146 144 149 153 160 159 161 156
102 201 239 185 196 157 94 116 144 169 177 88 190 244 287 266 255 282 259 287 269 132 251 297 329 289 283 274 272 178 191 216 214 201 204 200 193 185 167 160 149 158 164 156 163 170 190 200 188 195 191 175 183 73 149 213 156 156 155 156 152 152 152 149 147 148 151 150 145 148 138 141 122 99 115 127 161 143 127 135 149 149 152 156 159 159
279 275 218 199 143 141 87 111 116 77 73 161 114 147 252 231 354 304 296 351 336 161 282 284 288 283 284 283 270 235 200 224 224 211 210 198 186 179 173 172 167 162 159 165 168 173 199 201 180 184 191 200 174 166 167 173 158 152 153 155 152 150 149 145 149 151 144 138 125 106 121 117 112 143 131 99 111 110 106 121 136 141 147 157 158 158
208 204 133 126 147 158 199 176 139 166 269 264 194 215 256 275 216 201 267 336 306 294 210 267 325 300 299 326 330 299 280 270 258 232 87 136 153 139 145 161 176 174 164 161 170 175 201 195 195 196 206 185 192 179 174 164 150 148 151 156 155 147 144 143 144 142 133 125 105 105 95 96 82 78 104 114 79 104 135 110 116 152 138 144 145 148
264 252 115 114 133 170 178 244 219 166 248 308 226 208 224 216 240 255 280 15 19 325 325 179 8 301 280 281 264 297 329 275 268 169 185 149 141 149 160 175 173 170 169 163 169 176 189 188 190 213 201 200 197 183 162 145 137 127 135 143 143 132 133 142 144 142 142 139 135 131 135 138 121 127 140 163 164 134 141 158 130 101 131 134 135 140
221 139 161 186 162 161 170 207 234 146 196 36 271 196 213 214 222 241 242 95 275 217 314 54 113 274 317 334 305 312 311 292 332 175 169 154 150 158 169 173 171 167 161 156 173 181 180 189 201 213 211 202 194 167 147 134 126 121 129 134 135 134 135 140 144 148 143 139 145 153 158 152 153 153 178 99 118 145 109 103 118 127 108 113 130 121
131 177 164 127 148 158 126 249 235 157 120 242 247 165 184 197 214 235 126 180 238 274 293 43 134 228 305 302 286 298 359 343 4 166 170 165 161 164 174 171 169 166 163 167 180 187 186 191 202 202 205 193 172 132 135 126 124 128 133 131 133 133 139 145 147 150 148 145 149 144 133 140 149 150 152 138 114 89 110 90 95 113 98 90 109 126
154 185 161 152 146 143 210 204 185 157 152 218 238 158 170 187 205 172 159 185 225 359 286 325 217 289 265 265 308 341 10 346 343 324 193 178 171 167 168 166 166 166 168 172 176 180 191 205 208 213 194 116 115 131 137 128 125 126 131 130 132 139 144 146 152 143 141 142 149 142 136 129 110 117 114 103 94 98 98 93 64 94 103 85 85 135
268 172 198 166 149 209 224 205 164 167 203 264 165 173 97 110 105 152 160 148 300 97 269 258 226 224 289 277 332 332 71 341 294 316 227 191 178 172 151 156 154 161 168 175 184 190 202 210 198 198 148 116 105 103 121 117 121 125 131 137 141 148 151 148 146 140 139 143 140 133 135 131 119 107 94 100 102 104 102 98 94 111 116 112 104 149
215 313 149 119 186 212 194 209 172 188 200 116 99 101 29 41 51 46 80 107 70 286 252 221 229 165 278 270 248 21 260 271 301 298 226 193 181 177 168 153 160 165 174 176 191 201 213 207 145 100 95 91 95 103 117 123 122 125 129 136 141 142 136 139 142 143 145 143 144 138 142 137 130 125 121 110 102 107 101 115 118 126 132 132 152 156
352 37 135 235 182 160 144 220 232 210 205 164 301 129 105 284 11 45 341 42 110 267 260 212 202 166 189 290 281 248 281 269 247 247 218 204 185 177 174 164 158 175 177 178 189 204 209 138 93 87 95 109 112 119 126 122 121 125 127 133 132 134 137 134 138 138 143 145 144 140 143 141 139 136 136 133 139 140 136 132 129 134 119 104 77 90
281 222 228 273 245 183 174 207 311 9 232 130 98 59 102 274 42 314 11 267 209 221 249 123 137 86 236 218 244 303 297 286 238 231 226 215 195 178 179 174 173 177 180 183 189 195 182 105 88 110 109 110 122 119 123 120 121 122 124 131 134 135 133 134 138 139 137 141 148 149 146 139 140 139 137 140 138 146 136 139 134 142 138 141 126 177
277 297 276 252 326 201 146 184 260 293 146 125 156 159 95 156 70 244 270 223 315 288 251 177 230 257 248 296 255 300 302 289 274 235 221 214 206 189 181 175 173 183 187 185 184 158 97 119 137 114 113 109 107 107 106 113 118 117 118 123 120 126 134 138 140 143 148 157 156 157 150 144 142 143 143 143 140 150 150 154 154 157 160 164 170 175
352 349 283 147 253 208 169 190 196 179 162 195 132 156 181 148 160 211 198 214 220 226 285 289 141 235 141 237 303 301 303 301 292 221 183 200 218 199 173 174 182 190 194 185 166 153 175 171 145 125 120 113 112 105 106 112 119 121 128 124 140 134 148 151 148 145 151 155 155 157 151 145 146 144 145 147 145 149 156 168 155 163 159 155 171 165
199 202 255 229 136 129 176 243 137 97 100 194 165 74 80 232 144 193 205 167 241 342 348 355 197 177 203 265 282 314 321 335 21 74 117 180 194 175 166 188 196 196 195 185 160 159 125 96 107 116 119 123 119 112 118 126 122 121 126 136 144 144 152 149 140 145 152 150 144 142 136 137 132 131 131 131 137 151 159 163 160 161 164 157 151 155
24 293 270 311 186 196 229 160 224 140 214 240 104 186 213 164 115 78 80 29 112 47 247 143 320 304 301 321 270 334 338 10 197 116 144 119 63 53 37 11 334 332 341 337 25 87 102 91 87 95 107 112 110 102 104 123 126 121 127 132 133 132 136 149 147 134 123 116 119 119 124 128 132 143 151 154 156 158 157 148 153 147 148 136 139 144
141 242 295 73 304 287 208 204 198 228 144 92 174 240 133 110 114 132 206 350 68 179 255 51 237 303 27 268 342 338 329 14 11 67 113 65 67 69 78 70 52 54 52 39 51 43 53 71 77 79 86 97 108 106 96 95 107 116 126 134 135 137 134 124 117 113 113 109 105 114 118 127 148 154 148 146 146 135 126 115 120 117 127 149 147 134
141 328 300 259 236 271 340 126 6 347 334 157 198 180 117 276 252 319 93 216 193 266 268 324 288 249 176 252 352 191 344 0 8 22 55 64 83 88 67 59 78 90 82 78 68 59 57 71 82 89 91 98 108 111 108 102 98 106 114 131 136 131 125 124 115 111 104 107 121 133 142 143 138 126 116 108 111 121 129 139 145 140 141 129 131 121
32 168 292 290 216 303 359 51 268 287 325 5 99 95 13 108 158 127 201 171 120 230 62 291 42 243 210 217 192 261 17 12 21 34 35 45 23 28 68 67 61 77 96 101 108 116 119 102 103 110 108 105 104 107 111 111 108 101 92 74 63 64 60 57 58 56 59 126 141 143 131 112 109 111 114 120 133 137 145 151 146 138 138 153 132 123
89 104 214 279 287 359 324 357 246 160 151 104 138 273 357 23 211 103 37 89 177 169 181 166 298 276 265 226 233 319 6 29 40 76 62 44 39 31 41 68 23 31 88 97 98 100 98 104 97 92 99 98 95 98 98 100 101 102 98 99 102 105 100 100 112 134 167 154 123 122 124 118 113 113 115 114 131 141 143 140 135 140 146 129 134 136
86 91 187 317 4 12 245 254 252 52 200 180 156 193 171 119 125 161 252 21 84 102 204 134 239 268 271 292 348 46 37 55 75 90 78 71 63 44 41 53 75 23 56 79 96 84 95 97 85 85 89 102 99 94 103 107 104 115 122 125 133 134 131 136 148 162 124 124 143 138 114 108 111 123 129 130 138 143 137 132 135 142 136 138 150 140
149 158 97 307 202 271 245 270 342 353 72 232 130 181 151 122 104 97 170 242 51 47 116 152 110 275 262 100 49 78 69 69 73 88 79 78 85 83 55 53 105 90 70 65 74 81 91 100 112 118 122 125 122 123 126 131 134 141 138 127 120 108 119 135 142 140 134 137 135 124 122 128 132 134 132 123 120 116 117 131 142 152 144 145 139 117
87 63 62 296 318 295 306 295 298 358 16 11 4 44 93 167 179 167 164 182 139 159 90 358 217 250 307 88 77 100 102 89 83 95 106 84 94 98 103 63 60 71 56 55 55 61 70 80 86 96 108 121 126 130 127 111 100 100 123 131 118 120 140 139 142 146 145 140 123 123 130 131 135 127 118 107 110 121 132 136 142 148 136 137 133 121
74 299 121 38 10 338 341 349 1 344 47 79 326 319 318 49 72 169 111 104 102 222 168 127 220 268 127 100 93 112 90 77 70 41 72 88 59 50 46 32 18 32 49 44 46 50 57 61 76 104 118 111 109 109 101 93 97 106 96 95 119 129 142 131 106 83 65 83 100 103 104 99 107 112 106 106 104 98 99 111 122 122 130 125 117 127
97 203 141 179 171 173 197 241 246 264 257 281 9 337 351 36 148 114 145 55 166 297 111 135 236 260 144 137 119 100 90 74 58 65 47 58 88 89 70 59 36 31 53 57 46 52 53 50 48 45 57 84 86 86 81 79 77 70 72 75 94 114 114 109 111 113 111 112 132 130 117 110 96 95 102 98 87 83 73 65 60 62 51 81 134 127
120 115 85 145 163 190 202 220 249 156 22 58 304 19 331 328 333 94 102 86 185 198 208 237 179 157 152 140 138 119 87 99 90 61 61 60 44 66 85 68 64 53 56 57 52 55 59 55 51 56 55 54 79 88 87 80 74 72 67 62 62 75 81 85 103 119 136 155 128 95 74 93 104 106 98 92 93 83 68 55 51 49 46 63 72 142
71 64 28 95 67 294 268 234 290 55 121 83 37 332 330 349 330 61 110 161 165 88 301 284 203 139 161 141 140 120 96 81 76 68 62 58 68 70 78 91 85 74 60 46 51 57 62 61 52 50 65 59 65 71 74 73 69 66 67 63 58 62 65 60 75 80 78 75 79 74 65 45 68 89 96 100 89 77 81 73 55 41 23 25 53 50
127 118 222 84 37 1 346 354 340 83 71 106 70 27 4 339 9 97 217 214 119 131 194 219 138 139 154 146 132 128 137 122 92 83 75 80 78 74 76 77 75 70 67 72 48 45 63 73 67 60 61 61 63 64 64 67 67 64 63 60 64 67 77 87 82 77 71 66 68 78 89 84 77 77 90 94 94 83 75 83 81 69 50 21 24 32
90 67 116 112 106 26 4 9 22 94 119 44 37 22 5 7 30 47 59 14 84 123 168 122 103 69 75 128 121 120 96 98 96 82 72 67 62 71 76 64 60 59 62 70 53 64 55 59 70 68 66 66 67 66 71 72 70 68 65 56 56 56 58 74 73 72 69 69 65 59 65 72 67 79 82 76 74 74 77 82 90 84 70 39 27 47
101 204 108 104 65 360 347 345 37 54 92 83 29 24 14 357 26 26 44 29 26 93 102 96 89 57 336 58 98 80 96 99 84 75 76 77 61 64 71 64 56 42 25 20 42 54 47 40 42 65 68 66 65 65 65 70 75 72 64 61 59 59 59 72 68 64 58 48 44 46 50 58 60 57 63 69 74 71 60 52 53 65 67 50 37 45
68 142 74 94 75 332 340 355 330 18 80 94 35 12 2 2 21 349 3 336 304 141 122 109 110 132 23 81 92 90 79 72 79 78 77 62 66 64 57 58 61 63 62 41 10 36 41 42 45 57 63 68 65 67 66 66 69 71 66 62 60 63 70 71 68 68 65 59 55 51 47 42 46 55 53 49 47 49 53 55 51 43 36 30 30 33
78 131 106 100 89 249 296 333 330 360 29 353 3 342 332 293 251 287 307 354 354 311 138 153 175 125 135 131 98 59 66 58 50 38 53 62 58 58 58 56 51 46 40 47 28 4 57 56 47 59 63 69 59 58 63 73 77 73 76 73 68 71 71 70 68 66 63 59 60 58 53 55 52 42 47 49 48 46 54 55 51 40 34 31 24 43
51 94 93 63 115 238 334 343 344 62 213 228 318 287 321 304 313 351 13 348 345 355 84 9 116 127 124 120 117 114 80 63 68 55 37 36 72 67 59 58 52 48 47 24 46 12 59 76 78 66 63 68 70 66 67 60 72 74 74 77 69 67 63 69 66 66 65 63 59 58 56 54 61 55 45 44 50 50 51 51 50 45 39 39 39 46
120 87 98 122 94 84 3 11 86 198 235 8 244 8 338 335 10 38 72 30 22 42 88 70 55 59 71 83 97 104 100 86 65 52 39 37 45 64 75 66 59 53 55 22 13 359 32 65 75 77 72 67 70 69 70 64 63 73 68 67 68 61 68 66 70 66 63 64 60 60 61 57 58 56 47 43 47 51 49 44 38 37 31 38 42 42
148 121 158 50 103 81 54 11 121 260 272 313 332 4 350 334 0 307 227 48 35 44 74 88 78 77 85 95 94 100 104 104 77 55 42 27 26 44 57 44 34 50 55 38 36 343 24 46 62 69 75 72 74 75 71 73 66 67 67 65 68 64 61 66 70 70 64 63 59 57 58 64 65 62 56 48 47 48 44 40 34 28 17 34 38 39
135 103 103 96 340 141 152 92 147 31 269 35 353 12 6 348 344 356 354 357 13 48 86 110 99 96 97 91 108 121 113 87 74 47 34 31 17 39 58 54 27 26 36 32 54 20 47 59 69 67 75 75 72 74 75 78 76 70 65 66 66 66 61 59 62 65 66 67 64 58 54 56 62 62 59 56 55 49 42 38 31 30 24 38 34 34
42 141 196 102 311 112 130 80 17 18 279 346 195 269 282 249 284 264 244 344 14 63 110 121 124 127 117 108 123 140 111 88 70 52 1 26 25 51 63 57 52 39 15 20 33 66 69 69 74 72 79 82 72 72 83 82 79 79 71 65 72 77 68 60 55 56 60 64 61 59 56 56 64 66 59 56 56 53 46 38 35 31 25 45 37 36
38 71 92 105 126 52 52 111 160 150 236 258 308 317 313 304 249 46 311 354 329 359 118 131 119 124 133 142 174 209 104 82 116 142 350 346 57 23 57 69 56 48 38 21 16 29 47 68 78 77 72 73 74 67 74 83 88 82 76 72 73 78 80 71 58 51 59 55 56 55 53 52 56 62 68 66 59 56 51 44 41 26 25 34 44 50
35 10 30 53 46 56 127 81 85 42 35 335 320 315 325 309 146 101 56 316 323 358 101 127 131 136 140 115 128 60 95 135 163 164 246 319 349 28 37 58 63 39 30 29 28 32 43 61 73 68 69 73 74 74 80 87 85 83 81 68 62 70 72 77 82 81 75 71 66 65 57 55 56 53 55 62 67 64 60 46 41 32 30 27 32 29
354 356 46 89 108 54 73 74 34 354 325 337 319 315 313 299 232 66 114 300 1 78 73 105 97 63 29 20 24 84 12 80 105 127 165 221 56 46 32 45 43 44 37 33 29 42 61 58 68 75 78 81 81 79 79 83 82 80 78 79 73 67 65 75 84 85 84 80 72 67 63 55 58 60 55 53 56 55 52 40 36 33 37 35 27 33
16 55 6 60 36 51 54 96 156 213 229 318 322 309 281 9 30 354 284 341 243 103 86 86 85 51 51 56 75 87 96 104 120 129 135 165 118 95 78 83 69 53 40 34 29 45 58 64 74 80 77 74 82 85 86 86 85 87 87 82 77 78 77 74 71 72 73 71 69 65 60 57 49 46 47 42 42 46 40 28 29 29 28 22 22 22
314 73 356 31 310 54 30 60 35 26 303 18 322 328 15 81 228 286 313 357 63 109 104 75 70 85 96 79 81 95 100 109 118 130 143 132 135 137 124 109 99 78 55 48 51 45 73 74 69 70 77 78 83 87 92 90 88 88 84 77 70 58 58 61 64 71 74 73 72 70 69 65 61 58 56 53 50 53 44 24 27 25 28 29 26 25
343 92 23 2 282 102 39 52 65 278 301 327 355 62 313 301 261 253 164 52 30 72 94 80 60 78 105 107 100 93 92 98 94 100 95 86 82 79 76 79 86 84 71 59 76 89 88 84 79 71 57 58 63 69 75 85 85 80 76 66 29 49 61 65 68 72 70 64 60 56 51 50 53 58 60 65 66 66 55 32 26 29 27 26 28 20
335 96 181 117 310 85 93 95 4 288 311 312 341 314 343 360 51 70 73 59 75 51 67 90 89 82 87 101 93 92 90 74 91 100 103 93 77 76 76 59 68 85 93 92 83 92 98 104 101 90 68 47 58 62 67 76 87 80 75 43 43 63 77 81 81 80 72 63 52 45 35 32 29 26 25 24 30 32 25 19 18 17 8 17 16 18
120 105 122 78 44 63 78 91 104 356 354 356 12 10 44 55 54 71 78 78 47 62 70 98 99 96 90 87 96 71 72 85 77 70 74 72 73 54 55 52 37 46 71 81 84 89 100 97 91 89 81 53 41 59 64 69 86 87 89 41 46 56 73 75 74 70 67 62 56 46 40 42 26 26 24 24 31 41 44 40 20 14 354 20 10 5
319 73 55 97 348 57 12 329 21 335 339 359 20 38 46 55 62 72 80 80 80 77 78 76 90 93 95 97 98 106 100 86 77 60 61 63 62 64 65 67 47 45 74 97 112 109 98 97 93 92 90 76 30 60 68 75 71 93 111 88 77 76 80 81 83 81 75 69 62 47 48 49 33 19 15 16 10 16 23 19 24 4 350 352 350 347
25 110 74 79 52 94 167 319 313 300 299 6 6 52 64 66 68 69 78 82 83 75 77 82 86 83 89 93 101 97 88 81 96 87 76 63 62 66 64 57 59 66 52 94 115 113 102 105 112 112 105 103 89 77 81 80 86 91 94 92 91 89 80 76 80 83 75 64 58 54 55 51 36 32 12 4 14 8 359 2 24 5 333 328 321 319
275 27 49 306 86 340 336 318 347 48 45 15 10 27 32 65 90 82 84 85 80 79 76 70 78 99 95 106 106 105 97 92 106 117 106 104 87 67 68 74 78 82 75 76 62 98 115 121 114 116 114 120 117 92 87 94 97 109 114 119 108 87 75 64 56 58 49 32 36 23 21 26 21 12 9 356 354 347 318 300 333 325 310 276 205 208
52 59 207 54 60 17 171 202 146 82 68 63 23 6 8 14 93 94 94 90 97 100 97 95 70 76 109 126 126 119 122 124 123 117 106 110 115 113 85 79 74 76 67 73 93 96 96 103 124 128 129 148 151 135 128 132 149 174 172 148 136 97 89 85 68 62 42 41 43 13 14 7 0 354 6 360 349 340 333 278 247 246 230 293 292 260
105 191 141 116 154 144 237 236 162 143 130 204 170 22 2 333 90 110 110 109 97 109 122 117 114 81 62 31 86 131 132 132 137 127 118 125 123 113 104 108 101 89 73 70 94 76 86 94 111 122 128 155 168 161 154 151 164 161 175 170 143 111 120 129 111 103 99 89 91 143 135 47 354 3 359 351 350 344 335 328 336 233 253 242 260 276